Tracking 19827 objects as of 21-Aug-2019
HD Live streaming from Space Station
objects crossing your sky now

STARLINK OBJ BE

Track STARLINK OBJ BE now!
10-day predictions
STARLINK OBJ BE is classified as:


NORAD ID: 44287
Int'l Code: 2019-029BE
Perigee: 556.1 km
Apogee: 558.1 km
Inclination: 53.0 °
Period: 95.6 minutes
Semi major axis: 6928 km
RCS: Unknown
Launch date: May 24, 2019
Source: United States (US)
Launch site: AIR FORCE EASTERN TEST RANGE (AFETR)
aabbcc
Your satellite tracking list
Your tracking list is empty




NASA's NSSDC Master Catalog

Two Line Element Set (TLE):
1 44287U 19029BE  19232.93810262 +.00000811 +00000-0 +74964-4 0  9998
2 44287 052.9998 133.4190 0001502 040.0645 320.0453 15.05503182012759
Source of the keplerian elements: AFSPC